CZ-2D DEB, 44605

Orbit data source: Space-Track

CZ-2D DEB, 44605 is space debris in SSO originally from a launch on Fri, 11 Nov 2016 UTC launched from the Jiuquan Satellite Launch Center, China (JSC). Debris objects in space refer to the collection of defunct objects orbiting the Earth. Examples of debris include non-operational satellites, rocket bodies, and fragments generated from explosions, collisions, or faulty payload assembly.

Loading next visibility...
Identifier
44605, 2016-068E
Orbit
SSO
Last TLE update
12 hours ago
Origin
Manufacturer
Unknown
Mission
Spacecraft
Bus & Motor
Unknown
Mass
Unknown
Launch date (UTC)
2016-11-11 (9 years ago)
Launch vehicle
Unknown
Launch site
Jiuquan Satellite Launch Center, China (JSC)
Object type
Payload
Rocket body
Debris
Shape & HBR
Unknown
Radar Cross Section
Small (<0.1 m²)

Expand to show TLE details & history

TLE from 12 hours ago
0 CZ-2D DEB
1 44605U 16068E   25182.70309226  .00000478  00000-0  34422-3 0  9994
2 44605  98.4483 273.2293 0230677 142.9007 218.8351 13.88816297432496
Epoch: 2025-07-01T16:52Z
TLE epoch observation values (Epoch: 2025-07-01T16:52:27.171Z)
Latitude
0.00001°
Longitude
100.12134°
Altitude
1,068.548 km
Speed
7.251 km/s
True Right ascension
18h 12m 55s
True Declination
0° 00' 00"
Sunlit
Object was in full shadow at epoch
Visualization orbit readout
Latitude
26.05003°
Longitude
96.44197°
Altitude
1,004.441 km
Speed
7.317 km/s
Apparent Right ascension
20h 25m 57s
Apparent Declination
-18° 58' 27"
Sunlit
Object is in full shadow
Visualization observer readout
Local Sidereal Time
16:47:56
Azimuth
128.01° SE
Elevation
12.271°
Doppler factor
1
Orbital elements
Apogee altitude
1,098.549 km
Perigee altitude
761.387 km
Semi-major axis
7,308.105 km
Eccentricity
0.02307
Inclination
98.4483°
RAAN
273.2293°
Arg. of periapsis
142.9007°
True anomaly
Unknown
Mean anomaly
218.8351°
Eccentric anomaly
Unknown
Mean motion
3.47405 °/min
Orbital period
103.63 mins
BSTAR
0.00034422
Loading maneuver chart data...
Loading SW <> Apogee altitude chart data...
Loading historical data...
Loading historical data...
Loading historical data...
Loading historical data...
Loading historical data...
Loading historical data...
Loading historical data...

CZ-2D DEB Visibility forecast

Observer location: undefined°, undefined°

Span
Click to sort rows by Start time (UTC) header in descending order
Start Az.
Max El. time (UTC)
Max El. Az.
Max El.
End time (UTC)
End Az.
10 mins2025-07-02 05:06:25.893Z128.196° SE2025-07-02 05:11:25.893Z68.449° E29.188°2025-07-02 05:16:25.893Z6.596° NNE
9 mins2025-07-02 06:49:25.893Z204.036° SW2025-07-02 06:53:25.893Z255.544° W30.367°2025-07-02 06:58:25.893Z324.946° NNW
4 mins2025-07-02 17:43:25.893Z68.376° E2025-07-02 17:45:25.893Z96.268° ESE15.822°2025-07-02 17:47:25.893Z122.547° SE
8 mins2025-07-02 19:24:25.893Z357.006° N2025-07-02 19:27:25.893Z308.504° NW36.754°2025-07-02 19:32:25.893Z214.932° SW
|